Dades meteomassalio
Diari Summary for Maig 21, 2017 Units:  English    Metric   Both
« Previous Day
Next Day »
Diari Semanal Mensual Anual Personalitzat
  Maxima: Minima: Mijana:
Temperatura: TemperatureC °F 8.8 °F 18.4 °F
Rosada: DewpointC °F 6.7 °F 10.9 °F
Humitat: Humidity % 41 % 64 %
Velocitat del vent: WindSpeedKMH mph 0.0 mph 4.6 mph
Racha vent: WindSpeedGustKMH mph - -
Vent:- - East
Pressio: PressurehPa in 1015.5 in -
Pluja: 0.0 in    
Historical Graphs
 
 
Tabular Data for Maig 21, 2017
Time Temperature Dew Point Pressure Wind Wind Speed Wind Gust Humidity Rainfall Rate (Hourly) solar Conditions
TemperatureC °F DewpointC °F PressurehPa in Calm     Humidity % HourlyPrecipMM in SolarRadiationWatts/m^2 W/m2 Conditions
00:00 13.7 °F 7.9 °F 1022.9 in Calm     68 % 0.0 in 0.0 W/m2 CLR
00:05 13.6 °F 7.8 °F 1022.9 in Calm     68 % 0.0 in 0.0 W/m2 CLR
00:10 13.5 °F 7.9 °F 1022.9 in Calm     69 % 0.0 in 0.0 W/m2 CLR
00:15 13.4 °F 7.8 °F 1022.9 in Calm     69 % 0.0 in 0.0 W/m2 CLR
00:20 13.3 °F 7.7 °F 1022.9 in Calm     69 % 0.0 in 0.0 W/m2 CLR
00:25 13.1 °F 7.7 °F 1022.9 in Calm     70 % 0.0 in 0.0 W/m2 CLR
00:30 13.0 °F 7.7 °F 1022.9 in Calm     70 % 0.0 in 0.0 W/m2 CLR
00:35 13.1 °F 7.7 °F 1022.9 in Calm     70 % 0.0 in 0.0 W/m2 CLR
00:40 13.1 °F 7.7 °F 1023.2 in Calm     70 % 0.0 in 0.0 W/m2 CLR
00:45 12.8 °F 7.7 °F 1023.2 in Calm     71 % 0.0 in 0.0 W/m2 CLR
00:50 12.7 °F 7.6 °F 1023.2 in Calm     71 % 0.0 in 0.0 W/m2 CLR
00:55 12.6 °F 7.4 °F 1023.2 in Calm     71 % 0.0 in 0.0 W/m2 CLR
01:00 12.4 °F 7.6 °F 1023.2 in Calm     72 % 0.0 in 0.0 W/m2 CLR
01:05 12.4 °F 7.7 °F 1023.2 in Calm     73 % 0.0 in 0.0 W/m2 CLR
01:10 12.4 °F 7.6 °F 1023.2 in Calm     72 % 0.0 in 0.0 W/m2 CLR
01:15 12.4 °F 7.7 °F 1023.2 in Calm     73 % 0.0 in 0.0 W/m2 CLR
01:20 12.4 °F 7.7 °F 1023.2 in Calm     73 % 0.0 in 0.0 W/m2 CLR
01:25 12.3 °F 7.6 °F 1023.2 in Calm     73 % 0.0 in 0.0 W/m2 CLR
01:30 12.3 °F 7.6 °F 1023.2 in Calm     73 % 0.0 in 0.0 W/m2 CLR
01:35 12.2 °F 7.7 °F 1023.2 in Calm     74 % 0.0 in 0.0 W/m2 CLR
01:40 12.1 °F 7.6 °F 1023.2 in Calm     74 % 0.0 in 0.0 W/m2 CLR
01:45 12.1 °F 7.6 °F 1022.9 in Calm     74 % 0.0 in 0.0 W/m2 CLR
01:50 11.9 °F 7.7 °F 1022.9 in Calm     75 % 0.0 in 0.0 W/m2 CLR
01:55 11.8 °F 7.5 °F 1022.9 in Calm     75 % 0.0 in 0.0 W/m2 CLR
02:00 11.7 °F 7.4 °F 1022.9 in Calm     75 % 0.0 in 0.0 W/m2 CLR
02:05 11.6 °F 7.3 °F 1022.9 in Calm     75 % 0.0 in 0.0 W/m2 CLR
02:10 11.6 °F 7.5 °F 1022.9 in Calm     76 % 0.0 in 0.0 W/m2 CLR
02:15 11.6 °F 7.5 °F 1022.9 in Calm     76 % 0.0 in 0.0 W/m2 CLR
02:20 11.6 °F 7.7 °F 1022.9 in Calm     77 % 0.0 in 0.0 W/m2 CLR
02:25 11.6 °F 7.7 °F 1022.6 in Calm     77 % 0.0 in 0.0 W/m2 CLR
02:30 11.5 °F 7.6 °F 1022.6 in Calm     77 % 0.0 in 0.0 W/m2 CLR
02:35 11.6 °F 7.7 °F 1022.6 in Calm     77 % 0.0 in 0.0 W/m2 CLR
02:40 11.8 °F 7.9 °F 1022.6 in Calm     77 % 0.0 in 0.0 W/m2 CLR
02:45 11.8 °F 7.9 °F 1022.6 in Calm     77 % 0.0 in 0.0 W/m2 CLR
02:50 11.7 °F 7.8 °F 1022.6 in Calm     77 % 0.0 in 0.0 W/m2 CLR
02:55 11.5 °F 7.6 °F 1022.6 in Calm     77 % 0.0 in 0.0 W/m2 CLR
03:00 11.4 °F 7.7 °F 1022.9 in Calm     78 % 0.0 in 0.0 W/m2 CLR
03:05 11.6 °F 7.7 °F 1022.9 in Calm     77 % 0.0 in 0.0 W/m2 CLR
03:10 11.8 °F 7.7 °F 1022.6 in Calm     76 % 0.0 in 0.0 W/m2 CLR
03:15 11.8 °F 7.6 °F 1022.6 in Calm     75 % 0.0 in 0.0 W/m2 CLR
03:20 11.8 °F 7.5 °F 1022.9 in Calm     75 % 0.0 in 0.0 W/m2 CLR
03:25 11.5 °F 7.4 °F 1022.6 in Calm     76 % 0.0 in 0.0 W/m2 CLR
03:30 11.3 °F 7.4 °F 1022.6 in Calm     77 % 0.0 in 0.0 W/m2 CLR
03:35 11.1 °F 7.4 °F 1022.6 in Calm     78 % 0.0 in 0.0 W/m2 CLR
03:40 10.9 °F 7.4 °F 1022.6 in Calm     79 % 0.0 in 0.0 W/m2 CLR
03:45 10.8 °F 7.3 °F 1022.6 in Calm     79 % 0.0 in 0.0 W/m2 CLR
03:50 10.6 °F 7.3 °F 1022.9 in Calm     80 % 0.0 in 0.0 W/m2 CLR
03:55 10.5 °F 7.2 °F 1022.6 in Calm     80 % 0.0 in 0.0 W/m2 CLR
04:00 10.4 °F 7.3 °F 1022.6 in Calm     81 % 0.0 in 0.0 W/m2 CLR
04:05 10.3 °F 7.2 °F 1022.6 in Calm     81 % 0.0 in 0.0 W/m2 CLR
04:11 10.2 °F 7.2 °F 1022.6 in Calm     82 % 0.0 in 0.0 W/m2 CLR
04:16 10.0 °F 7.1 °F 1022.6 in Calm     82 % 0.0 in 0.0 W/m2 CLR
04:21 9.8 °F 6.9 °F 1022.6 in Calm     82 % 0.0 in 0.0 W/m2 CLR
04:26 9.8 °F 7.1 °F 1022.2 in Calm     83 % 0.0 in 0.0 W/m2 CLR
04:31 9.8 °F 7.1 °F 1022.2 in Calm     83 % 0.0 in 0.0 W/m2 CLR
04:36 9.8 °F 7.0 °F 1022.2 in Calm     83 % 0.0 in 0.0 W/m2 CLR
04:41 9.7 °F 7.0 °F 1022.2 in Calm     83 % 0.0 in 0.0 W/m2 CLR
04:46 9.7 °F 7.1 °F 1022.2 in Calm     84 % 0.0 in 0.0 W/m2 CLR
04:51 9.6 °F 7.1 °F 1021.9 in Calm     84 % 0.0 in 0.0 W/m2 CLR
04:56 9.6 °F 6.8 °F 1021.9 in Calm     83 % 0.0 in 0.0 W/m2 CLR
05:01 9.4 °F 6.9 °F 1021.9 in Calm     84 % 0.0 in 0.0 W/m2 CLR
05:06 9.4 °F 6.8 °F 1021.9 in Calm     84 % 0.0 in 0.0 W/m2 CLR
05:11 9.3 °F 6.8 °F 1021.9 in Calm     84 % 0.0 in 0.0 W/m2 CLR
05:16 9.3 °F 6.9 °F 1021.9 in Calm     85 % 0.0 in 0.0 W/m2 CLR
05:21 9.3 °F 6.9 °F 1021.9 in Calm     85 % 0.0 in 0.0 W/m2 CLR
05:26 9.2 °F 6.8 °F 1021.9 in Calm     85 % 0.0 in 0.0 W/m2 CLR
05:31 9.2 °F 6.8 °F 1021.9 in Calm     85 % 0.0 in 0.0 W/m2 CLR
05:36 9.2 °F 6.8 °F 1021.6 in Calm     85 % 0.0 in 0.0 W/m2 CLR
05:41 9.1 °F 6.7 °F 1021.6 in Calm     85 % 0.0 in 0.0 W/m2 CLR
05:46 9.1 °F 6.7 °F 1021.6 in Calm     85 % 0.0 in 0.0 W/m2 CLR
05:51 9.1 °F 6.7 °F 1021.9 in Calm     85 % 0.0 in 0.0 W/m2 CLR
05:56 9.1 °F 6.8 °F 1021.6 in Calm     86 % 0.0 in 0.0 W/m2 CLR
06:01 9.1 °F 6.8 °F 1021.6 in Calm     86 % 0.0 in 0.0 W/m2 CLR
06:06 9.0 °F 6.8 °F 1021.6 in Calm     86 % 0.0 in 0.0 W/m2 CLR
06:11 8.9 °F 6.7 °F 1021.6 in Calm     86 % 0.0 in 0.0 W/m2 CLR
06:16 8.9 °F 6.7 °F 1021.6 in Calm     86 % 0.0 in 0.0 W/m2 CLR
06:21 8.9 °F 6.7 °F 1021.6 in Calm     86 % 0.0 in 0.0 W/m2 CLR
06:22 8.9 °F 6.7 °F 1021.6 in Calm     86 % 0.0 in 0.0 W/m2 CLR
06:27 8.8 °F 6.8 °F 1021.6 in Calm     87 % 0.0 in 0.0 W/m2 OVC
06:32 8.9 °F 6.8 °F 1021.9 in Calm     87 % 0.0 in 0.0 W/m2 OVC
06:37 8.9 °F 6.8 °F 1021.9 in Calm     87 % 0.0 in 0.0 W/m2 OVC
06:42 9.0 °F 6.9 °F 1021.9 in Calm     87 % 0.0 in 5.0 W/m2 OVC
06:47 9.1 °F 7.1 °F 1021.9 in Calm     87 % 0.0 in 11.0 W/m2 BKN
06:53 9.2 °F 6.9 °F 1021.9 in Calm     86 % 0.0 in 12.0 W/m2 BKN
06:58 9.2 °F 6.9 °F 1021.9 in Calm     86 % 0.0 in 14.0 W/m2 BKN
07:03 9.2 °F 7.0 °F 1021.9 in Calm     86 % 0.0 in 19.0 W/m2 BKN
07:08 9.3 °F 7.1 °F 1021.9 in Calm     86 % 0.0 in 28.0 W/m2 BKN
07:13 9.3 °F 7.1 °F 1021.9 in Calm     86 % 0.0 in 39.0 W/m2 BKN
07:18 9.3 °F 7.1 °F 1021.9 in Calm     86 % 0.0 in 49.0 W/m2 SCT
07:23 9.4 °F 7.2 °F 1021.9 in Calm     86 % 0.0 in 54.0 W/m2 SCT
07:28 9.4 °F 7.2 °F 1021.9 in Calm     86 % 0.0 in 62.0 W/m2 SCT
07:33 9.6 °F 7.3 °F 1021.9 in Calm     86 % 0.0 in 70.0 W/m2 FEW
07:38 9.7 °F 7.4 °F 1021.9 in Calm     86 % 0.0 in 83.0 W/m2 FEW
07:43 9.8 °F 7.6 °F 1021.9 in Calm     86 % 0.0 in 104.0 W/m2 FEW
07:48 10.0 °F 7.8 °F 1021.9 in Calm     86 % 0.0 in 121.0 W/m2 CLR
07:53 10.2 °F 7.9 °F 1021.9 in Calm     86 % 0.0 in 137.0 W/m2 CLR
07:58 10.4 °F 8.0 °F 1021.9 in Calm     85 % 0.0 in 148.0 W/m2 CLR
08:03 10.7 °F 8.2 °F 1021.9 in Calm     85 % 0.0 in 162.0 W/m2 CLR
08:08 10.9 °F 8.3 °F 1021.9 in Calm     84 % 0.0 in 151.0 W/m2 CLR
08:13 11.2 °F 8.6 °F 1021.9 in Calm     84 % 0.0 in 207.0 W/m2 CLR
08:18 11.5 °F 8.7 °F 1021.9 in Calm     83 % 0.0 in 206.0 W/m2 CLR
08:23 11.8 °F 8.8 °F 1021.9 in Calm     82 % 0.0 in 258.0 W/m2 CLR
08:28 12.2 °F 9.2 °F 1021.6 in Calm     82 % 0.0 in 239.0 W/m2 CLR
08:33 12.6 °F 9.4 °F 1021.9 in Calm     81 % 0.0 in 236.0 W/m2 CLR
08:38 13.0 °F 9.4 °F 1021.6 in Calm     79 % 0.0 in 216.0 W/m2 CLR
08:43 13.3 °F 9.5 °F 1021.6 in Calm     78 % 0.0 in 223.0 W/m2 CLR
08:48 13.6 °F 9.8 °F 1021.6 in Calm     78 % 0.0 in 223.0 W/m2 CLR
08:53 14.0 °F 10.1 °F 1021.6 in Calm     77 % 0.0 in 262.0 W/m2 CLR
08:58 14.4 °F 10.2 °F 1021.6 in Calm     76 % 0.0 in 260.0 W/m2 CLR
09:03 14.7 °F 10.3 °F 1021.6 in Calm     75 % 0.0 in 248.0 W/m2 CLR
09:08 15.1 °F 10.5 °F 1021.6 in Calm     74 % 0.0 in 248.0 W/m2 CLR
09:13 15.2 °F 10.4 °F 1021.2 in Calm     73 % 0.0 in 285.0 W/m2 CLR
09:18 15.3 °F 10.7 °F 1021.2 in Calm     74 % 0.0 in 297.0 W/m2 CLR
09:23 15.6 °F 11.0 °F 1021.2 in Calm     74 % 0.0 in 339.0 W/m2 CLR
09:28 16.0 °F 11.2 °F 1021.2 in Calm     73 % 0.0 in 353.0 W/m2 CLR
09:33 16.4 °F 11.4 °F 1021.2 in Calm     72 % 0.0 in 343.0 W/m2 CLR
09:38 16.8 °F 11.8 °F 1021.2 in Calm     72 % 0.0 in 420.0 W/m2 CLR
09:43 17.2 °F 11.9 °F 1021.2 in Calm     71 % 0.0 in 411.0 W/m2 CLR
09:48 17.7 °F 12.1 °F 1021.2 in Calm     70 % 0.0 in 388.0 W/m2 CLR
09:53 18.1 °F 12.3 °F 1021.2 in Calm     69 % 0.0 in 364.0 W/m2 CLR
09:58 18.5 °F 12.5 °F 1021.2 in Calm     68 % 0.0 in 376.0 W/m2 CLR
10:03 18.7 °F 12.7 °F 1021.2 in Calm     68 % 0.0 in 417.0 W/m2 CLR
10:08 18.9 °F 12.7 °F 1021.2 in Calm     67 % 0.0 in 394.0 W/m2 CLR
10:13 19.2 °F 12.7 °F 1021.2 in Calm     66 % 0.0 in 383.0 W/m2 CLR
10:18 19.3 °F 12.8 °F 1021.2 in Calm     66 % 0.0 in 448.0 W/m2 CLR
10:23 19.7 °F 13.1 °F 1021.2 in Calm     66 % 0.0 in 534.0 W/m2 CLR
10:28 19.9 °F 12.9 °F 1021.2 in Calm     64 % 0.0 in 520.0 W/m2 CLR
10:33 20.2 °F 12.9 °F 1021.2 in Calm     63 % 0.0 in 512.0 W/m2 CLR
10:38 20.4 °F 13.3 °F 1021.2 in Calm     64 % 0.0 in 587.0 W/m2 CLR
10:43 20.6 °F 13.1 °F 1021.2 in Calm     62 % 0.0 in 589.0 W/m2 CLR
10:48 20.8 °F 13.3 °F 1021.2 in Calm     62 % 0.0 in 564.0 W/m2 CLR
10:53 21.1 °F 13.2 °F 1021.2 in Calm     61 % 0.0 in 582.0 W/m2 CLR
10:58 21.3 °F 13.5 °F 1021.2 in NE 3.2 mph   61 % 0.0 in 679.0 W/m2 CLR
11:03 21.5 °F 13.4 °F 1021.2 in NE 9.3 mph 9.3 mph 60 % 0.0 in 642.0 W/m2 CLR
11:08 21.4 °F 13.1 °F 1021.2 in East 9.3 mph 9.3 mph 59 % 0.0 in 617.0 W/m2 CLR
11:13 21.4 °F 13.3 °F 1021.2 in NE 3.7 mph 3.7 mph 60 % 0.0 in 659.0 W/m2 CLR
11:18 21.7 °F 13.1 °F 1020.9 in ENE 9.3 mph 9.3 mph 58 % 0.0 in 591.0 W/m2 CLR
11:23 21.6 °F 13.2 °F 1020.9 in ENE 8.0 mph 8.0 mph 59 % 0.0 in 724.0 W/m2 CLR
11:28 21.7 °F 13.3 °F 1020.9 in NE 13.0 mph 13.0 mph 59 % 0.0 in 691.0 W/m2 CLR
11:33 21.8 °F 13.2 °F 1020.9 in NE 11.1 mph 11.1 mph 58 % 0.0 in 643.0 W/m2 CLR
11:38 21.9 °F 13.0 °F 1020.9 in ENE 9.7 mph 9.7 mph 57 % 0.0 in 615.0 W/m2 CLR
11:43 22.1 °F 12.6 °F 1020.9 in ENE 11.1 mph 11.1 mph 55 % 0.0 in 649.0 W/m2 CLR
11:48 22.3 °F 11.9 °F 1020.9 in ENE 3.7 mph   52 % 0.0 in 640.0 W/m2 CLR
11:53 22.6 °F 11.6 °F 1020.9 in NNE 8.0 mph 8.0 mph 50 % 0.0 in 721.0 W/m2 CLR
11:58 22.8 °F 12.7 °F 1020.9 in ENE 11.1 mph 11.1 mph 53 % 0.0 in 708.0 W/m2 CLR
12:03 22.9 °F 13.4 °F 1020.5 in North 9.7 mph 9.7 mph 55 % 0.0 in 761.0 W/m2 CLR
12:05 22.9 °F 13.4 °F 1020.5 in North 14.5 mph 14.5 mph 55 % 0.0 in 773.0 W/m2 CLR
12:10 23.1 °F 13.2 °F 1020.5 in NE 14.5 mph 14.5 mph 54 % 0.0 in 870.0 W/m2 CLR
12:15 23.1 °F 12.7 °F 1020.2 in ENE 14.8 mph 14.8 mph 52 % 0.0 in 626.0 W/m2 CLR
12:20 23.2 °F 12.2 °F 1020.2 in ENE 11.1 mph 11.1 mph 50 % 0.0 in 482.0 W/m2 CLR
12:26 23.0 °F 12.0 °F 1020.2 in NE 9.7 mph 9.7 mph 50 % 0.0 in 478.0 W/m2 CLR
12:31 23.0 °F 12.6 °F 1020.2 in NNE 13.0 mph 13.0 mph 52 % 0.0 in 483.0 W/m2 CLR
12:36 22.9 °F 12.5 °F 1020.2 in NNE 7.4 mph 7.4 mph 52 % 0.0 in 443.0 W/m2 CLR
12:41 23.0 °F 12.6 °F 1019.9 in NE 13.0 mph 13.0 mph 52 % 0.0 in 563.0 W/m2 CLR
12:46 23.2 °F 12.5 °F 1019.9 in NNE 9.3 mph 9.3 mph 51 % 0.0 in 691.0 W/m2 CLR
12:51 23.6 °F 12.6 °F 1019.9 in NE 14.8 mph 14.8 mph 50 % 0.0 in 780.0 W/m2 CLR
12:56 23.9 °F 12.5 °F 1019.5 in NNE 16.7 mph 16.7 mph 49 % 0.0 in 986.0 W/m2 CLR
13:01 24.1 °F 12.4 °F 1019.5 in NNE 14.8 mph 14.8 mph 48 % 0.0 in 963.0 W/m2 CLR
13:06 24.3 °F 12.6 °F 1019.5 in NE 7.4 mph 8.2 mph 48 % 0.0 in 954.0 W/m2 CLR
13:11 24.6 °F 12.6 °F 1019.2 in ENE 18.5 mph 18.5 mph 47 % 0.0 in 956.0 W/m2 CLR
13:16 24.8 °F 12.4 °F 1019.2 in NE 9.3 mph 9.3 mph 46 % 0.0 in 937.0 W/m2 CLR
13:21 25.1 °F 12.6 °F 1019.2 in ENE 9.3 mph 9.3 mph 46 % 0.0 in 967.0 W/m2 CLR
13:26 25.2 °F 12.7 °F 1019.2 in ENE 11.3 mph 11.3 mph 46 % 0.0 in 823.0 W/m2 CLR
13:31 25.1 °F 11.9 °F 1018.8 in NE 8.0 mph 8.0 mph 44 % 0.0 in 942.0 W/m2 CLR
13:36 25.2 °F 12.4 °F 1018.8 in East 13.0 mph 13.0 mph 45 % 0.0 in 954.0 W/m2 CLR
13:41 25.1 °F 12.3 °F 1018.8 in ENE 16.7 mph 16.7 mph 45 % 0.0 in 958.0 W/m2 CLR
13:46 25.6 °F 12.8 °F 1018.8 in NE 16.1 mph 16.1 mph 45 % 0.0 in 949.0 W/m2 CLR
13:51 25.8 °F 12.7 °F 1018.5 in East 16.7 mph 16.7 mph 44 % 0.0 in 956.0 W/m2 CLR
13:56 25.6 °F 12.4 °F 1018.5 in ENE 13.0 mph 13.0 mph 44 % 0.0 in 953.0 W/m2 CLR
14:01 25.6 °F 12.8 °F 1018.5 in NE 9.7 mph 9.7 mph 45 % 0.0 in 865.0 W/m2 CLR
14:06 25.9 °F 12.3 °F 1018.5 in ESE 16.7 mph 16.7 mph 43 % 0.0 in 809.0 W/m2 CLR
14:11 25.9 °F 12.7 °F 1018.5 in ENE 11.3 mph 11.3 mph 44 % 0.0 in 838.0 W/m2 CLR
14:16 25.9 °F 12.3 °F 1018.5 in SE 8.0 mph 8.0 mph 43 % 0.0 in 788.0 W/m2 CLR
14:21 25.9 °F 12.4 °F 1018.5 in Calm     43 % 0.0 in 796.0 W/m2 CLR
14:26 26.1 °F 12.2 °F 1018.2 in SE 14.8 mph 14.8 mph 42 % 0.0 in 904.0 W/m2 CLR
14:31 26.0 °F 12.4 °F 1018.2 in ESE 1.9 mph 1.9 mph 43 % 0.0 in 896.0 W/m2 CLR
14:36 26.5 °F 12.9 °F 1018.2 in ENE 7.4 mph 7.4 mph 43 % 0.0 in 933.0 W/m2 CLR
14:41 27.1 °F 13.1 °F 1018.2 in East 16.7 mph 16.7 mph 42 % 0.0 in 949.0 W/m2 CLR
14:46 27.3 °F 13.2 °F 1017.8 in NE 14.8 mph 14.8 mph 42 % 0.0 in 928.0 W/m2 CLR
14:51 27.4 °F 13.3 °F 1017.8 in ENE 7.4 mph 7.4 mph 42 % 0.0 in 930.0 W/m2 CLR
14:56 27.2 °F 12.8 °F 1017.8 in East 14.8 mph 14.8 mph 41 % 0.0 in 773.0 W/m2 CLR
15:01 27.3 °F 13.6 °F 1017.8 in ENE 6.4 mph 6.4 mph 43 % 0.0 in 784.0 W/m2 CLR
15:06 27.3 °F 13.7 °F 1017.5 in ENE 11.1 mph 11.1 mph 43 % 0.0 in 782.0 W/m2 CLR
15:11 27.5 °F 13.8 °F 1017.5 in ESE 9.3 mph 9.3 mph 43 % 0.0 in 598.0 W/m2 CLR
15:16 27.3 °F 13.2 °F 1017.8 in Calm     42 % 0.0 in 499.0 W/m2 CLR
15:21 26.9 °F 13.3 °F 1017.5 in Calm     43 % 0.0 in 427.0 W/m2 CLR
15:26 26.7 °F 13.4 °F 1017.5 in ENE 9.3 mph 9.3 mph 44 % 0.0 in 431.0 W/m2 CLR
15:31 26.6 °F 13.7 °F 1017.5 in ENE 11.1 mph 11.1 mph 45 % 0.0 in 390.0 W/m2 CLR
15:36 26.4 °F 13.8 °F 1017.2 in ENE 9.3 mph 9.3 mph 46 % 0.0 in 403.0 W/m2 CLR
15:41 26.3 °F 13.7 °F 1017.5 in ENE 16.7 mph 16.7 mph 46 % 0.0 in 431.0 W/m2 CLR
15:46 26.3 °F 14.1 °F 1017.5 in ESE 14.8 mph 14.8 mph 47 % 0.0 in 487.0 W/m2 CLR
15:51 26.3 °F 14.1 °F 1017.2 in ESE 14.8 mph 14.8 mph 47 % 0.0 in 601.0 W/m2 CLR
15:56 26.4 °F 13.9 °F 1017.2 in ESE 14.8 mph 14.8 mph 46 % 0.0 in 475.0 W/m2 CLR
16:01 26.3 °F 14.1 °F 1017.2 in East 16.7 mph 16.7 mph 47 % 0.0 in 482.0 W/m2 CLR
16:06 26.2 °F 14.0 °F 1017.2 in ESE 13.0 mph 13.0 mph 47 % 0.0 in 591.0 W/m2 CLR
16:11 26.3 °F 14.4 °F 1017.2 in ESE 9.3 mph 9.3 mph 48 % 0.0 in 492.0 W/m2 CLR
16:16 26.3 °F 14.1 °F 1016.8 in ESE 13.0 mph 13.0 mph 47 % 0.0 in 461.0 W/m2 CLR
16:21 26.1 °F 14.2 °F 1017.2 in East 13.0 mph 13.0 mph 48 % 0.0 in 454.0 W/m2 CLR
16:26 26.1 °F 13.6 °F 1016.8 in East 14.5 mph 14.5 mph 46 % 0.0 in 459.0 W/m2 CLR
16:31 25.9 °F 14.1 °F 1016.8 in East 18.5 mph 18.5 mph 48 % 0.0 in 503.0 W/m2 CLR
16:36 25.8 °F 14.3 °F 1016.8 in ESE 14.8 mph 14.8 mph 49 % 0.0 in 504.0 W/m2 CLR
16:41 25.7 °F 13.5 °F 1016.8 in SE 18.5 mph 18.5 mph 47 % 0.0 in 487.0 W/m2 CLR
16:46 25.6 °F 14.1 °F 1016.8 in ESE 18.5 mph 18.5 mph 49 % 0.0 in 478.0 W/m2 CLR
16:51 25.6 °F 14.1 °F 1016.8 in East 9.3 mph 9.3 mph 49 % 0.0 in 454.0 W/m2 CLR
16:56 25.6 °F 14.1 °F 1016.8 in ESE 16.7 mph 16.7 mph 49 % 0.0 in 424.0 W/m2 CLR
17:01 25.7 °F 14.4 °F 1016.8 in SE 11.1 mph 11.1 mph 50 % 0.0 in 431.0 W/m2 CLR
17:06 25.6 °F 14.1 °F 1016.8 in SE 18.5 mph 18.5 mph 49 % 0.0 in 387.0 W/m2 CLR
17:11 25.6 °F 14.4 °F 1016.8 in SE 9.3 mph 9.3 mph 50 % 0.0 in 353.0 W/m2 CLR
17:16 25.7 °F 14.5 °F 1016.8 in ESE 9.3 mph 9.3 mph 50 % 0.0 in 332.0 W/m2 CLR
17:21 25.8 °F 14.3 °F 1016.5 in ESE 14.8 mph 14.8 mph 49 % 0.0 in 294.0 W/m2 CLR
17:26 25.7 °F 14.4 °F 1016.5 in East 13.0 mph 13.0 mph 50 % 0.0 in 274.0 W/m2 CLR
17:31 25.5 °F 14.6 °F 1016.5 in ESE 13.0 mph 13.0 mph 51 % 0.0 in 251.0 W/m2 CLR
17:36 25.4 °F 14.5 °F 1016.5 in East 16.7 mph 16.7 mph 51 % 0.0 in 230.0 W/m2 CLR
17:41 25.6 °F 14.7 °F 1016.5 in East 6.4 mph 6.4 mph 51 % 0.0 in 200.0 W/m2 CLR
17:42 25.6 °F 14.7 °F 1016.5 in East 8.0 mph 8.0 mph 51 % 0.0 in 195.0 W/m2 CLR
17:47 25.4 °F 14.6 °F 1016.5 in ESE 14.8 mph 14.8 mph 51 % 0.0 in 176.0 W/m2 CLR
17:52 25.3 °F 14.4 °F 1016.5 in ESE 13.0 mph 13.0 mph 51 % 0.0 in 181.0 W/m2 CLR
17:57 25.2 °F 14.4 °F 1016.8 in ESE 11.1 mph 11.1 mph 51 % 0.0 in 186.0 W/m2 CLR
18:02 25.1 °F 14.3 °F 1016.8 in East 16.7 mph 16.7 mph 51 % 0.0 in 186.0 W/m2 CLR
18:07 24.9 °F 14.4 °F 1016.8 in ESE 9.3 mph 9.3 mph 52 % 0.0 in 178.0 W/m2 CLR
18:12 24.8 °F 14.3 °F 1016.8 in East 9.3 mph 9.3 mph 52 % 0.0 in 162.0 W/m2 CLR
18:17 24.8 °F 14.3 °F 1016.8 in ESE 11.1 mph 11.1 mph 52 % 0.0 in 148.0 W/m2 CLR
18:22 24.8 °F 13.9 °F 1016.8 in ESE 13.0 mph 13.0 mph 51 % 0.0 in 135.0 W/m2 CLR
18:27 24.8 °F 14.3 °F 1016.8 in ESE 9.3 mph 9.3 mph 52 % 0.0 in 128.0 W/m2 CLR
18:32 24.8 °F 14.0 °F 1016.8 in ESE 7.4 mph 7.4 mph 51 % 0.0 in 118.0 W/m2 CLR
18:37 24.7 °F 14.2 °F 1016.8 in Calm     52 % 0.0 in 109.0 W/m2 CLR
18:42 24.7 °F 14.2 °F 1016.8 in ESE 9.3 mph 9.3 mph 52 % 0.0 in 100.0 W/m2 CLR
18:47 24.6 °F 14.1 °F 1016.8 in East 7.4 mph 7.4 mph 52 % 0.0 in 114.0 W/m2 CLR
18:52 24.4 °F 14.2 °F 1016.8 in ESE 13.0 mph 13.0 mph 53 % 0.0 in 118.0 W/m2 CLR
18:57 24.3 °F 14.1 °F 1016.5 in ESE 13.0 mph 13.0 mph 53 % 0.0 in 113.0 W/m2 CLR
19:02 24.3 °F 14.1 °F 1016.5 in ESE 11.1 mph 11.1 mph 53 % 0.0 in 107.0 W/m2 CLR
19:07 24.4 °F 14.2 °F 1016.5 in ESE 7.4 mph 7.4 mph 53 % 0.0 in 95.0 W/m2 CLR
19:12 24.6 °F 13.8 °F 1016.5 in East 7.4 mph 7.4 mph 51 % 0.0 in 74.0 W/m2 CLR
19:17 24.8 °F 13.4 °F 1016.5 in ESE 9.3 mph 9.3 mph 49 % 0.0 in 63.0 W/m2 FEW
19:22 24.9 °F 13.8 °F 1016.1 in SE 9.3 mph 9.3 mph 50 % 0.0 in 58.0 W/m2 SCT
19:27 24.9 °F 13.1 °F 1016.1 in SE 11.1 mph 11.1 mph 48 % 0.0 in 47.0 W/m2 SCT
19:32 25.2 °F 12.7 °F 1016.1 in SE 11.1 mph 11.1 mph 46 % 0.0 in 40.0 W/m2 SCT
19:37 25.1 °F 13.0 °F 1015.8 in SE 14.8 mph 14.8 mph 47 % 0.0 in 39.0 W/m2 BKN
19:42 25.0 °F 12.9 °F 1015.8 in ESE 13.0 mph 13.0 mph 47 % 0.0 in 60.0 W/m2 BKN
19:47 24.7 °F 13.3 °F 1015.8 in ESE 9.3 mph 9.3 mph 49 % 0.0 in 63.0 W/m2 SCT
19:52 24.3 °F 13.2 °F 1015.8 in East 9.3 mph 9.3 mph 50 % 0.0 in 56.0 W/m2 SCT
19:57 23.9 °F 13.1 °F 1015.8 in SE 14.8 mph 14.8 mph 51 % 0.0 in 47.0 W/m2 SCT
20:02 23.5 °F 13.1 °F 1015.5 in SE 14.8 mph 14.8 mph 52 % 0.0 in 40.0 W/m2 SCT
20:07 23.3 °F 13.2 °F 1015.8 in ENE 7.4 mph 7.4 mph 53 % 0.0 in 40.0 W/m2 BKN
20:12 23.1 °F 13.0 °F 1015.8 in ESE 11.1 mph 11.1 mph 53 % 0.0 in 51.0 W/m2 BKN
20:17 22.9 °F 13.1 °F 1016.1 in Calm     54 % 0.0 in 51.0 W/m2 SCT
20:18 22.9 °F 13.1 °F 1016.1 in Calm     54 % 0.0 in 51.0 W/m2 SCT
20:23 22.9 °F 13.1 °F 1016.1 in Calm     54 % 0.0 in 47.0 W/m2 SCT
20:28 22.8 °F 13.3 °F 1016.1 in NE 5.6 mph   55 % 0.0 in 39.0 W/m2 BKN
20:33 22.6 °F 13.1 °F 1016.1 in Calm     55 % 0.0 in 33.0 W/m2 BKN
20:38 22.3 °F 13.1 °F 1016.1 in East 6.4 mph 6.4 mph 56 % 0.0 in 40.0 W/m2 BKN
20:43 22.1 °F 12.9 °F 1016.1 in ENE 1.9 mph   56 % 0.0 in 33.0 W/m2 BKN
20:48 22.1 °F 13.2 °F 1016.1 in Calm     57 % 0.0 in 25.0 W/m2 BKN
20:50 21.9 °F 13.1 °F 1016.1 in Calm     57 % 0.0 in 23.0 W/m2 BKN
20:55 21.8 °F 13.2 °F 1016.1 in Calm     58 % 0.0 in 16.0 W/m2 BKN
21:00 21.7 °F 13.1 °F 1016.1 in Calm     58 % 0.0 in 11.0 W/m2 BKN
21:05 21.4 °F 12.8 °F 1016.1 in ESE 1.9 mph   58 % 0.0 in 5.0 W/m2 BKN
21:10 21.2 °F 12.9 °F 1016.1 in East 5.6 mph 5.6 mph 59 % 0.0 in 0.0 W/m2 OVC
21:15 21.0 °F 12.7 °F 1016.1 in East 5.6 mph 5.6 mph 59 % 0.0 in 0.0 W/m2 OVC
21:20 20.8 °F 12.8 °F 1016.1 in ESE 5.6 mph 5.6 mph 60 % 0.0 in 0.0 W/m2 OVC
21:25 20.8 °F 12.7 °F 1016.1 in ESE 5.6 mph 5.6 mph 60 % 0.0 in 0.0 W/m2 OVC
21:30 20.7 °F 12.7 °F 1015.8 in Calm     60 % 0.0 in 0.0 W/m2 CLR
21:35 20.6 °F 12.5 °F 1015.8 in East 9.3 mph 9.3 mph 60 % 0.0 in 0.0 W/m2 CLR
21:40 20.4 °F 12.7 °F 1015.8 in Calm     61 % 0.0 in 0.0 W/m2 CLR
21:45 20.4 °F 12.6 °F 1015.8 in ESE 5.6 mph 5.6 mph 61 % 0.0 in 0.0 W/m2 CLR
21:50 20.4 °F 12.4 °F 1015.8 in Calm     60 % 0.0 in 0.0 W/m2 CLR
21:55 20.4 °F 12.4 °F 1015.8 in Calm     60 % 0.0 in 0.0 W/m2 CLR
21:56 20.4 °F 12.4 °F 1015.8 in Calm     60 % 0.0 in 0.0 W/m2 CLR
22:01 20.4 °F 12.4 °F 1016.1 in Calm     60 % 0.0 in 0.0 W/m2 CLR
22:06 20.4 °F 12.4 °F 1016.1 in Calm     60 % 0.0 in 0.0 W/m2 CLR
22:11 20.5 °F 12.4 °F 1016.1 in Calm     60 % 0.0 in 0.0 W/m2 CLR
22:16 20.6 °F 12.3 °F 1016.1 in SSW 7.4 mph 7.4 mph 59 % 0.0 in 0.0 W/m2 CLR
22:21 20.6 °F 12.3 °F 1016.1 in Calm     59 % 0.0 in 0.0 W/m2 CLR
22:26 20.6 °F 12.3 °F 1016.1 in Calm     59 % 0.0 in 0.0 W/m2 CLR
22:31 20.5 °F 12.2 °F 1016.5 in Calm     59 % 0.0 in 0.0 W/m2 CLR
22:36 20.4 °F 12.2 °F 1016.1 in Calm     59 % 0.0 in 0.0 W/m2 CLR
22:41 20.3 °F 12.3 °F 1016.1 in ENE 3.7 mph 3.7 mph 60 % 0.0 in 0.0 W/m2 CLR
22:46 20.1 °F 12.1 °F 1016.1 in Calm     60 % 0.0 in 0.0 W/m2 CLR
22:51 19.8 °F 12.1 °F 1015.8 in Calm     61 % 0.0 in 0.0 W/m2 CLR
22:56 19.7 °F 12.0 °F 1015.8 in Calm     61 % 0.0 in 0.0 W/m2 CLR
23:01 19.7 °F 12.2 °F 1015.8 in Calm     62 % 0.0 in 0.0 W/m2 CLR
23:06 19.6 °F 12.1 °F 1015.8 in Calm     62 % 0.0 in 0.0 W/m2 CLR
23:11 19.4 °F 11.9 °F 1015.8 in Calm     62 % 0.0 in 0.0 W/m2 CLR
23:16 19.3 °F 12.1 °F 1015.8 in East 7.4 mph 7.4 mph 63 % 0.0 in 0.0 W/m2 CLR
23:21 19.2 °F 11.9 °F 1015.8 in Calm     63 % 0.0 in 0.0 W/m2 CLR
23:26 19.0 °F 12.1 °F 1015.8 in Calm     64 % 0.0 in 0.0 W/m2 CLR
23:31 18.9 °F 11.9 °F 1015.8 in Calm     64 % 0.0 in 0.0 W/m2 CLR
23:36 18.8 °F 11.8 °F 1015.8 in Calm     64 % 0.0 in 0.0 W/m2 CLR
23:41 18.8 °F 12.1 °F 1015.8 in East 1.9 mph 1.9 mph 65 % 0.0 in 0.0 W/m2 CLR
23:46 18.7 °F 11.9 °F 1015.8 in Calm     65 % 0.0 in 0.0 W/m2 CLR
23:51 18.6 °F 11.8 °F 1015.8 in Calm     65 % 0.0 in 0.0 W/m2 CLR
23:56 18.5 °F 11.8 °F 1015.5 in Calm     65 % 0.0 in 0.0 W/m2 CLR
Lo Temps de Massalio
Compliments of Weather Underground - 1.25 mb